User: anonymous   Login
Location: Caltech
(34.1382°N, 118.1253°W)
Time: 10:37:49
(UTC-07:00)
Language:

RS-15 - Orbit

View from above orbital plane
View from above orbital plane
View from above satellite
View from above satellite

Ground track
Ground track

The orbit data is extracted from the following two-line orbital elements,

1 23439U 94085A   18113.17006758 -.00000034  00000-0  22863-3 0  9997
2 23439  64.8166  77.8082 0158982 192.0743 259.7056 11.27566950960523
Epoch (UTC): 23 April 2018 04:04:53
Eccentricity: 0.0158982
inclination: 64.8166°
perigee height: 1889 km
apogee height: 2156 km
right ascension of ascending node: 77.8082°
argument of perigee: 192.0743°
revolutions per day: 11.27566950
mean anomaly at epoch: 259.7056°
orbit number at epoch: 96052

The dashed part of the orbit path shows where the satellite is in the earth's shadow,  

DLR